SCP
0 0 0 0 0 0 0 0 0 0 0 0 0 0 1 1 1 1 1 2 2 2 2 2 2 2 2 2 2 2 2 2 2 2 1 1 1 1 1 1 1 1 1 1
0 0 0 0 0 0 0 0 0 0 0 0 0 1 1 1 1 1 1 2 2 2 2 2 2 2 2 2 2 2 2 2 2 2 1 1 1 1 1 1 1 1 1 1
0 0 0 0 0 0 0 0 0 0 0 0 1 1 1 1 1 1 1 2 2 2 2 2 2 2 2 2 2 2 2 2 2 2 1 1 1 1 1 1 1 1 1 1
0 0 0 0 0 0 0 0 0 0 0 0 1 1 1 1 1 1 2 2 2 2 2 2 2 2 2 2 2 2 2 2 2 2 2 1 1 1 1 1 1 1 1 1
0 0 0 0 0 0 0 0 0 0 0 0 0 1 1 1 1 1 2 2 2 2 2 2 2 2 2 2 2 2 2 2 2 2 2 2 2 1 1 1 1 1 1 1
0 0 0 0 0 0 0 0 0 0 0 0 1 1 1 1 1 2 2 2 2 2 2 2 3 3 2 2 2 2 2 2 2 2 2 2 2 2 2 2 2 1 1 1
0 0 0 0 0 0 0 0 0 0 0 1 1 1 1 1 2 2 3 3 3 3 3 3 3 3 3 3 3 2 2 2 2 2 2 2 2 2 2 2 2 2 2 1
0 0 0 0 0 0 1 1 1 1 1 1 1 1 1 2 2 3 3 3 3 3 3 3 3 3 3 3 3 3 3 2 2 2 2 2 2 2 2 2 2 2 2 1
0 0 1 1 1 1 1 1 1 1 1 1 1 1 2 2 3 3 3 3 2 3 3 3 3 3 3 3 3 3 3 2 2 2 2 2 2 2 2 2 2 2 2 1
1 1 1 1 1 1 1 1 1 1 1 1 1 1 2 2 3 3 3 3 2 3 3 3 3 3 3 3 3 3 3 2 2 2 2 2 2 2 2 2 2 2 1 1
1 1 1 1 1 1 1 1 1 1 1 1 1 2 2 2 3 3 3 3 3 3 3 3 3 3 3 3 3 3 3 2 2 2 2 2 2 1 1 1 1 1 1 1
1 1 1 1 1 1 1 1 1 1 1 1 1 2 2 2 3 3 3 3 3 3 3 3 3 4 4 3 3 3 2 2 2 1 1 1 1 1 1 1 1 1 1 1
1 1 1 1 1 1 1 1 1 1 1 1 2 2 2 2 2 2 2 2 3 3 3 3 3 4 4 3 3 3 2 2 2 1 1 1 1 1 1 1 0 0 0 0
1 1 1 1 1 1 1 1 1 1 2 2 2 2 2 2 2 2 2 2 2 2 3 3 3 3 3 3 3 2 2 2 1 1 1 1 1 1 1 1 1 0 0 0
1 1 1 1 1 1 1 1 1 1 2 2 2 2 2 2 2 2 2 2 2 2 2 3 3 3 3 3 2 2 2 1 1 1 1 1 1 1 1 1 1 1 1 0
1 1 1 1 1 1 1 1 1 1 1 2 2 2 2 2 2 2 2 2 2 2 3 3 3 3 3 3 2 2 1 1 1 1 1 1 1 1 1 1 1 1 1 1
1 1 1 1 1 1 1 1 1 1 1 2 2 2 2 2 2 2 2 2 2 2 3 3 3 3 3 3 2 2 1 1 1 1 1 1 1 1 1 1 1 1 1 1
1 1 1 1 1 1 1 1 1 1 1 2 2 2 2 2 2 2 2 2 2 2 2 3 3 3 3 3 2 2 1 1 1 1 1 1 1 1 1 1 1 1 1 1
0 0 1 1 1 1 1 1 1 1 1 2 1 2 2 2 2 2 2 2 2 2 2 2 3 3 3 2 2 2 1 1 1 1 1 1 1 1 1 1 1 1 1 1
0 0 0 1 1 1 1 1 1 1 1 1 1 1 1 2 2 2 2 1 1 2 2 2 2 2 2 2 2 1 1 1 1 1 1 1 1 1 1 1 1 1 1 1
1 1 1 1 1 1 1 1 1 1 1 1 1 1 1 2 2 1 1 1 1 2 2 2 2 2 2 1 1 1 1 1 1 1 1 1 1 1 1 1 1 1 1 1
1 1 1 1 1 1 1 1 1 1 1 1 1 1 1 2 1 1 1 1 1 1 1 1 1 1 1 1 1 1 1 1 1 1 1 1 1 1 1 1 1 1 1 1
1 1 1 1 1 1 1 1 1 1 1 1 1 1 2 2 1 1 1 1 1 1 1 1 1 0 0 1 1 1 1 1 1 1 1 1 1 1 1 1 1 1 1 0
1 1 1 1 1 1 1 1 1 1 1 1 1 1 1 1 1 1 1 1 0 0 0 0 0 0 0 0 0 0 1 1 1 1 1 1 1 1 1 1 1 1 1 1
1 1 1 1 1 1 1 1 1 1 1 1 1 1 1 1 1 1 1 0 0 0 0 0 0 0 0 0 0 0 0 0 0 0 0 1 0 0 1 1 1 1 1 1
1 1 1 1 1 1 1 1 1 1 1 1 1 1 1 1 1 1 0 0 0 0 0 0 0 0 0 0 0 0 0 0 0 0 0 0 0 0 0 0 0 0 0 0
1 1 1 1 1 1 1 1 1 1 1 1 1 1 1 0 0 0 0 0 0 0 0 0 0 0 0 0 0 0 0 0 0 0 0 0 0 0 0 0 0 0 0 0
Wind_Speed
16 15 13 14 15 16 15 13 12 11 8 6 6 6 8 8 8 10 11 10 9 8 7 7 7 7 6 6 7 7 7 7 7 6 5 5 4 4 3 2 3 2 2 2
16 17 15 15 15 16 16 14 14 13 7 2 4 6 8 7 7 8 9 9 10 9 8 8 8 7 7 6 7 7 7 7 7 6 6 5 4 4 3 3 2 2 2 2
14 16 17 17 15 15 15 14 13 11 6 3 4 4 7 7 6 7 8 9 9 9 8 7 7 7 7 7 7 7 7 7 7 7 6 6 6 5 4 3 3 2 2 2
12 14 18 13 13 14 13 11 10 8 5 4 6 5 6 7 6 5 6 7 8 8 8 7 7 7 6 7 7 7 7 7 7 7 7 6 5 5 4 3 3 2 2 3
11 14 16 13 13 13 11 10 9 8 6 4 5 5 5 5 6 5 5 5 6 7 7 7 7 8 7 7 7 7 7 7 7 7 7 6 6 5 4 3 3 3 3 3
11 14 14 11 10 9 9 9 7 6 3 3 3 4 3 3 5 6 5 5 5 6 6 6 6 7 7 7 7 7 7 6 6 6 6 7 6 5 4 4 4 4 3 3
14 14 12 8 7 8 10 4 2 4 3 3 2 1 3 4 5 6 6 6 5 5 5 5 6 5 6 6 6 6 6 6 5 6 6 6 6 5 5 4 4 4 3 3
13 14 10 5 5 4 0 3 1 0 1 2 1 2 3 4 5 5 6 6 5 5 5 5 5 5 5 5 5 5 5 6 6 6 6 6 6 5 5 5 5 4 3 3
8 6 1 3 3 4 3 3 1 0 1 2 2 3 4 4 5 4 5 5 5 5 5 5 5 5 5 4 4 5 5 5 5 5 4 5 6 6 6 5 5 5 5 4
4 4 2 2 2 3 3 3 2 1 1 1 2 2 3 3 4 4 4 4 5 5 5 5 4 4 4 4 5 5 5 5 5 5 5 5 5 5 6 6 5 4 4 4
6 3 2 3 2 2 2 3 2 2 1 2 2 2 3 3 3 4 4 4 4 4 4 5 5 4 4 5 5 5 5 5 5 5 5 4 4 2 4 2 3 4 3 3
4 2 3 2 2 2 2 3 3 3 2 1 1 2 3 3 3 3 4 3 4 4 5 5 5 5 5 5 5 5 5 5 5 5 5 5 5 3 1 1 4 4 3 2
3 2 2 1 2 2 3 3 3 3 2 1 1 1 2 2 3 3 3 4 4 4 5 5 5 5 5 5 6 6 5 5 5 5 5 5 5 5 4 2 2 3 4 4
3 2 2 2 3 3 4 4 3 2 1 1 2 2 2 2 2 3 3 4 4 4 4 5 5 5 5 6 6 6 6 6 5 5 5 5 5 5 5 6 5 4 3 5
5 3 3 2 3 3 3 3 3 2 2 2 3 3 2 2 2 2 2 2 3 4 4 5 5 5 5 6 6 6 6 5 5 5 5 5 5 5 5 6 5 5 5 5
5 4 3 3 4 4 4 3 3 3 1 1 1 2 2 2 2 1 1 2 3 4 4 4 4 5 5 6 6 5 4 6 6 5 5 5 5 5 5 5 5 5 5 6
6 5 4 4 4 4 3 3 3 2 1 1 1 1 2 2 2 2 1 1 1 2 3 3 3 4 5 5 5 4 5 5 7 6 5 5 5 5 4 5 5 5 4 6
6 6 5 5 4 4 3 3 3 3 2 2 1 1 1 1 1 1 1 1 1 2 2 3 3 3 4 4 4 4 4 4 5 5 4 4 4 4 4 4 4 5 4 6
7 7 6 5 5 5 4 3 3 3 2 2 2 2 1 1 1 1 1 1 2 3 2 3 4 4 4 3 4 3 4 4 4 4 4 4 4 4 3 3 3 3 3 4
6 6 5 5 5 5 4 3 3 2 2 2 2 1 2 2 1 1 1 2 3 2 2 2 3 3 3 3 4 4 4 4 4 4 4 4 4 3 3 3 2 3 3 3
3 4 4 4 4 3 3 3 2 2 2 2 2 2 2 2 2 2 2 3 1 1 2 3 3 2 3 3 4 4 3 3 3 3 3 3 3 3 2 2 2 2 2 2
1 2 2 2 1 1 2 2 1 1 2 1 2 1 1 2 2 2 2 2 1 1 2 2 2 2 2 3 3 3 3 3 3 3 2 2 3 2 2 2 2 2 2 2
1 2 2 2 2 1 1 1 1 0 0 0 0 1 2 1 2 2 2 1 1 1 1 1 0 1 1 3 3 2 2 2 2 2 2 2 2 2 2 2 2 2 2 2
2 2 2 1 1 1 1 2 2 1 1 0 0 0 1 1 0 0 0 1 2 1 1 1 3 3 3 3 2 2 2 1 1 1 1 1 2 2 2 2 2 2 2 2
1 1 1 1 1 0 2 1 1 1 1 1 1 0 0 0 0 1 1 1 1 1 1 2 4 4 4 3 2 2 2 2 1 1 1 1 1 1 2 2 1 2 2 2
1 1 1 1 1 1 0 0 1 1 1 1 1 2 1 1 1 1 0 0 1 1 1 1 2 3 2 1 1 1 2 2 2 2 2 2 3 2 2 2 2 2 2 2
1 0 0 1 1 1 1 1 1 1 1 2 2 3 3 2 1 1 1 0 1 1 1 1 1 1 1 1 1 1 2 2 2 2 2 2 3 3 2 2 2 2 2 2
Wind_Direction
255 257 240 220 222 225 229 239 249 251 234 194 174 159 143 144 147 147 147 148 146 144 143 149 150 154 158 160 156 154 155 157 156 155 150 150 151 146 140 143 142 129 121 112
251 255 253 241 225 229 232 234 245 253 257 184 157 150 141 147 151 149 151 153 152 153 154 159 161 163 162 162 156 155 159 158 153 157 157 157 155 147 143 144 130 128 123 112
248 245 249 243 235 232 233 237 244 246 233 188 150 162 145 145 153 156 158 156 155 156 160 163 162 160 163 160 158 160 162 161 161 164 165 166 164 154 156 151 144 139 132 117
247 248 244 244 242 240 235 236 242 250 237 193 173 170 152 152 152 154 151 154 155 159 161 161 160 159 161 162 163 165 169 170 169 168 166 163 160 160 158 152 153 155 145 140
243 242 243 244 238 240 235 229 238 246 240 210 178 162 163 156 155 155 152 146 153 160 160 157 159 159 163 168 166 170 175 176 171 168 167 168 168 166 161 161 167 166 154 149
240 243 242 241 235 231 231 226 232 237 230 210 180 197 174 129 141 141 133 136 144 153 152 151 154 159 167 174 175 176 175 174 168 169 172 173 169 167 165 168 174 171 164 160
239 246 247 250 236 221 227 218 239 227 182 208 207 220 117 123 124 128 130 136 140 141 144 148 155 160 171 176 179 173 168 166 169 171 173 171 166 169 171 178 181 175 164 163
229 241 243 268 234 225 84 58 57 322 202 222 148 115 112 114 123 132 137 139 141 137 141 145 156 164 172 178 172 163 162 165 170 173 185 176 168 175 176 181 182 181 180 183
220 230 320 3 40 52 47 36 37 347 185 213 177 144 133 130 133 138 139 142 147 146 147 153 161 169 178 175 167 166 169 173 171 176 184 172 175 182 186 192 198 192 185 189
214 209 247 348 29 48 34 9 332 283 190 196 153 140 133 136 141 144 147 151 154 158 162 162 163 167 168 160 161 165 170 171 171 176 186 184 188 193 199 201 201 195 190 194
219 211 253 289 18 22 359 342 319 295 227 210 187 161 153 144 141 147 156 161 165 164 167 164 160 165 164 158 162 172 178 179 180 187 192 192 194 213 213 206 199 203 203 193
224 205 233 266 335 348 330 303 298 282 257 245 225 169 159 153 149 152 158 158 177 176 176 174 171 172 166 163 170 178 187 188 187 191 190 191 189 184 74 143 155 154 139 157
275 276 240 262 293 297 282 275 274 275 250 197 179 139 148 146 148 156 169 175 190 188 187 180 176 175 172 171 180 191 200 197 195 194 195 196 200 194 186 169 136 148 161 157
304 298 267 281 275 277 278 274 269 255 247 197 153 158 164 162 169 183 193 192 191 192 196 190 184 181 177 179 187 197 207 201 200 199 201 203 205 206 199 192 190 189 190 184
282 258 241 249 265 277 275 264 254 248 218 175 147 157 164 171 185 196 207 211 192 196 197 196 190 182 178 185 192 201 209 206 202 207 207 207 204 204 206 202 198 188 168 172
269 258 241 242 247 254 256 255 253 249 230 155 158 164 171 171 184 202 205 211 202 207 200 195 189 185 181 192 200 206 211 210 211 214 213 213 210 208 208 205 203 190 181 175
260 249 239 245 255 262 263 276 277 273 253 227 189 181 189 173 180 188 195 230 227 208 200 197 194 184 185 196 208 216 217 208 209 221 221 219 215 212 208 207 205 197 188 173
268 267 256 256 259 271 269 278 285 280 259 245 224 215 220 205 207 194 212 226 220 206 195 179 175 185 193 202 211 224 226 220 214 216 219 221 221 221 214 211 208 201 175 168
243 249 249 255 263 268 267 260 254 253 250 234 227 233 235 249 234 224 226 245 242 218 187 167 185 205 208 205 220 229 228 218 221 218 214 202 208 223 219 208 201 194 175 165
249 252 250 253 258 265 265 266 269 258 248 235 211 222 242 250 260 237 228 257 262 246 156 157 185 203 214 200 218 231 234 228 224 220 213 210 208 212 219 216 206 190 177 177
255 252 248 254 259 270 277 271 263 252 251 224 203 217 225 235 238 230 237 259 265 199 176 179 208 212 214 218 225 236 231 219 216 220 222 213 210 208 206 204 195 190 184 183
313 310 300 290 285 294 292 300 316 278 251 223 208 204 204 212 224 226 222 236 242 240 228 216 214 203 217 233 232 238 238 226 217 212 210 206 206 201 202 191 188 185 181 175
7 357 351 348 345 334 322 329 354 328 0 59 174 210 223 248 249 239 238 225 200 229 260 274 229 171 208 245 255 245 241 224 214 213 205 194 197 187 175 186 186 178 169 168
26 2 355 345 347 358 0 17 25 27 40 53 94 19 244 219 241 317 88 111 101 128 299 126 166 185 219 246 252 235 227 215 211 207 197 181 184 182 172 173 175 163 150 153
351 339 354 317 274 62 71 64 75 104 125 108 98 53 290 335 358 34 64 75 109 173 197 175 190 211 230 245 229 211 197 188 189 177 149 139 151 143 129 135 147 143 137 133
320 312 354 10 25 27 101 95 58 50 46 40 19 6 2 25 45 39 20 241 244 231 224 177 177 207 240 241 192 175 176 167 166 172 155 133 130 126 124 129 129 130 126 118
295 326 4 9 57 44 43 59 61 43 38 44 34 21 10 7 9 6 344 291 250 239 233 194 182 173 166 142 129 127 130 132 134 129 127 122 121 117 115 122 120 114 114 117